This is the latest recevied weather packets stored in our database for station/object KD7MPG-3. If no packets are shown the sender has not sent any weather packets the latest 1 day(s).
| Time | Temp. | Humidity | Pressure | Rain* | Wind** | Luminosity | Snow |
|---|---|---|---|---|---|---|---|
| 1778038598 | 17.22° C | 79% | 1024.1 hPa | 0 mm | 0.45 m/s, 107° | - | - |
| 1778038297 | 17.78° C | 79% | 1024.1 hPa | 0 mm | 0.45 m/s, 105° | - | - |
| 1778037999 | 17.78° C | 78% | 1024.1 hPa | 0 mm | 0.45 m/s, 90° | - | - |
| 1778037693 | 17.78° C | 78% | 1024.2 hPa | 0 mm | 0.45 m/s, 128° | - | - |
| 1778037395 | 17.78° C | 77% | 1024.1 hPa | 0 mm | 0.45 m/s, 128° | - | - |
| 1778037093 | 17.78° C | 77% | 1024 hPa | 0 mm | 0.45 m/s, 128° | - | - |
| 1778036794 | 17.78° C | 77% | 1023.9 hPa | 0 mm | 0.45 m/s, 86° | - | - |
| 1778036493 | 17.78° C | 77% | 1023.8 hPa | 0 mm | 0.45 m/s, 96° | - | - |
| 1778036195 | 17.78° C | 77% | 1023.8 hPa | 0 mm | 0.89 m/s, 108° | - | - |
| 1778035890 | 18.33° C | 76% | 1023.7 hPa | 0 mm | 0.89 m/s, 96° | - | - |
| 1778035589 | 18.33° C | 76% | 1023.8 hPa | 0 mm | 1.34 m/s, 99° | - | - |
| 1778035290 | 18.33° C | 76% | 1023.6 hPa | 0 mm | 0.89 m/s, 93° | - | - |
| 1778034990 | 18.33° C | 76% | 1023.7 hPa | 0 mm | 0.89 m/s, 99° | - | - |
| 1778034689 | 18.33° C | 76% | 1023.8 hPa | 0 mm | 0.89 m/s, 69° | - | - |
| 1778034390 | 18.33° C | 75% | 1023.7 hPa | 0 mm | 0.45 m/s, 92° | - | - |
| 1778034085 | 18.89° C | 75% | 1023.7 hPa | 0 mm | 0.45 m/s, 69° | - | - |
| 1778033786 | 18.89° C | 75% | 1023.7 hPa | 0 mm | 0.89 m/s, 63° | - | - |
| 1778033485 | 18.89° C | 74% | 1023.8 hPa | 0 mm | 1.34 m/s, 57° | - | - |
| 1778033186 | 18.89° C | 74% | 1023.8 hPa | 0 mm | 0.89 m/s, 48° | - | - |
| 1778032883 | 19.44° C | 73% | 1023.8 hPa | 0 mm | 0.45 m/s, 87° | - | - |
| 1778032584 | 19.44° C | 73% | 1023.8 hPa | 0 mm | 0.89 m/s, 92° | - | - |
| 1778032285 | 19.44° C | 72% | 1023.8 hPa | 0 mm | 0.89 m/s, 61° | - | - |
| 1778031981 | 20° C | 72% | 1023.9 hPa | 0 mm | 0.45 m/s, 68° | - | - |
| 1778031680 | 20° C | 71% | 1023.8 hPa | 0 mm | 0.45 m/s, 77° | - | - |
| 1778031380 | 20.56° C | 70% | 1023.7 hPa | 0 mm | 0.89 m/s, 72° | - | - |
* Rain latest hour (hover to see other rain measurements)
** Current wind speed in m/s (hover to see current wind gust speed)